User: anonymous
Location: Caltech
(34.1382°N, 118.1253°W)
Time: 21:43:05
(UTC-07:00)
Language:

Iridium 70 - Orbit

View from above orbital plane
View from above orbital plane
View from above satellite
View from above satellite

Ground track
Ground track

The orbit data is extracted from the following two-line orbital elements,

1 25342U 98032A   14107.80278950  .00000401  00000-0  13629-3 0  7650
2 25342 086.3986 347.5561 0002079 106.2577 298.6525 14.34212470833352
Epoch (UTC): 17 April 2014 19:16:01
Eccentricity: 0.0002079
inclination: 86.3986°
perigee height: 776 km
apogee height: 779 km
right ascension of ascending node: 347.5561°
argument of perigee: 106.2577°
revolutions per day: 14.34212470
mean anomaly at epoch: 298.6525°
orbit number at epoch: 83335

The dashed part of the orbit path shows where the satellite is in the earth's shadow,  

DLR